Regional Weather Roundup
Issued by NWS

Home | Current Version | Previous Version | Graphics & Text | Print | Product List | Glossary On
Versions: 1 2 3 4 5 6 7 8 9 10 11 12 13 14 15 16 17 18 19 20 21 22 23 24 25 26 27 28 29 30 31 32 33 34 35 36 37 38 39 40 41 42 43 44 45 46 47 48 49 50
000
ASUS43 KLOT 201208
RWRIL

ILLINOIS REGIONAL WEATHER ROUNDUP
NATIONAL WEATHER SERVICE CHICAGO/ROMEOVILLE IL
600 AM CST SAT JAN 20 2018

NOTE: "FAIR" INDICATES FEW OR NO CLOUDS BELOW 12,000 FEET WITH NO
SIGNIFICANT WEATHER AND/OR OBSTRUCTIONS TO VISIBILITY.

* THESE STATIONS ARE NOT UNDER NWS QUALITY CONTROL. THEY ALSO MAY NOT
  REPORT WEATHER SUCH AS PRECIPITATION OR FOG.

ILZ001-002-007-009-015-016-024-201300-
NORTHWEST ILLINOIS

CITY           SKY/WX    TMP DP  RH WIND       PRES   REMARKS
MOLINE         FAIR      29  26  89 S3        29.86R
6HR MIN TEMP:  29; 6HR MAX TEMP:  41;

STERLING*      FAIR      32  28  85 SW3       29.87R
SAVANNA*       FAIR      30  26  86 S3        29.85R
$$

ILZ003-004-008-010-011-017-018-201300-
NORTH CENTRAL ILLINOIS

CITY           SKY/WX    TMP DP  RH WIND       PRES   REMARKS
ROCKFORD       FAIR      34  27  75 SW3       29.87R
6HR MIN TEMP:  31; 6HR MAX TEMP:  40;

FREEPORT*      FAIR      32  27  83 SW6       29.86R WCI  26
ROCHELLE*      FAIR      30  28  91 SW7       29.86R WCI  23
DE KALB*       FAIR      36  29  76 SW9       29.86R WCI  29
PERU*          FAIR      35  27  74 SW12      29.88R WCI  26
$$

ILZ005-006-012>014-019>023-201300-
NORTHEAST ILLINOIS

CITY           SKY/WX    TMP DP  RH WIND       PRES   REMARKS
CHICAGO-OHARE  MOCLDY    35  26  69 SW8       29.85R WCI  29
6HR MIN TEMP:  35; 6HR MAX TEMP:  39;

CHICAGO-MIDWAY MOCLDY    35  28  75 SW8       29.87R WCI  29
6HR MIN TEMP:  35; 6HR MAX TEMP:  39;

AURORA         FAIR      30  25  81 S6        29.86R WCI  24
6HR MIN TEMP:  30; 6HR MAX TEMP:  36;

LANSING*       FAIR      28  27  94 S6        29.89R WCI  22
JOLIET*        FAIR      33  28  85 SW5       29.89R WCI  28
WAUKEGAN       FAIR      37  28  70 W5        29.83R WCI  33
6HR MIN TEMP:  37; 6HR MAX TEMP:  41;

DUPAGE AIRPORT FAIR      30  26  85 SW6       29.85R WCI  24
6HR MIN TEMP:  30; 6HR MAX TEMP:  36;

KANKAKEE*      FAIR     N/A N/A N/A SW8       29.92R
WHEELING       FAIR      36  28  73 SW5       29.86R WCI  32
6HR MIN TEMP:  36; 6HR MAX TEMP:  40;

MORRIS*        FAIR      30  26  86 S7        29.88R WCI  23
ROMEOVILLE*    FAIR      30  27  88 SW8       29.88R WCI  22
NORTHERLY ISL    N/A     36  27  70 SW5         N/A  WCI  32
$$

LMZ740>746-201300-
SOUTHERN LAKE MICHIGAN

STATION/POSITION SKY/WX   TEMP    WIND        PRES    VSBY  WAVE
                          AIR SEA DIR/SP/G                  HT/PER
                          (F)     (DEG/KT/KT) (MB)    (MI)  (FT/S)
HARRISON CRIB              39     220/ 14/ 17   N/A
BURNHAM HARBOR             36     250/  5/  9   N/A
CALUMET HARBOR             34     200/ 11/ 14 1010.9R
BURNS HARBOR               36     190/ 18/ 28 1012.5R
MICHIGAN CITY              36     190/ 12/ 15   N/A
$$

ILZ025>027-034>036-040-047-049-050-058-095>099-201300-
WEST-CENTRAL ILLINOIS

CITY           SKY/WX    TMP DP  RH WIND       PRES   REMARKS
QUINCY         CLOUDY    35  30  82 S9        29.90S WCI  28
GALESBURG*     FAIR      33  30  88 S9        29.89R WCI  26
MACOMB*        CLOUDY    37  31  78 SW10      29.92R WCI  29
JACKSONVILLE*  CLOUDY    33  27  80 S7        29.93S WCI  27
PITTSFIELD*    CLOUDY    38  32  78 S3        29.94R
$$

ILZ028>032-037-038-041>044-048-051>054-059>061-201300-
CENTRAL ILLINOIS

CITY           SKY/WX    TMP DP  RH WIND       PRES   REMARKS
PONTIAC        FAIR      34  31  90 SW9       29.91R WCI  26
BLOOMINGTON    FAIR      31  28  89 SW12      29.92R WCI  22
DECATUR        FAIR      33  28  81 SW16      29.96R WCI  23
PEORIA         FAIR      30  25  81 S6        29.91R WCI  24
6HR MIN TEMP:  29; 6HR MAX TEMP:  36;

LACON*         FAIR      34  28  77 SW9       29.89R WCI  27
LINCOLN*       FAIR      32  29  90 S6        29.94R WCI  26
SPRINGFIELD    FAIR      34  28  79 S10       29.95R WCI  26
6HR MIN TEMP:  34; 6HR MAX TEMP:  38;

TAYLORVILLE    FAIR      30  27  86 S10       29.97S WCI  21
6HR MIN TEMP:  30; 6HR MAX TEMP:  34;

$$

ILZ033-039-045-046-055>057-062-063-201300-
EAST-CENTRAL ILLINOIS

CITY           SKY/WX    TMP DP  RH WIND       PRES   REMARKS
CHAMPAIGN      FAIR      28  26  92 S9        29.96R WCI  19
DANVILLE*      FAIR      30  25  81 SW14      29.94R WCI  19
RANTOUL*       FAIR      34  30  85 SW13G18   29.94R WCI  25
MATTOON        FAIR      32  26  78 S13       29.98R WCI  22
PARIS*         FAIR      31  26  81 S15       30.00R WCI  21
$$

ILZ079-100>102-201300-
SOUTHWEST ILLINOIS

CITY           SKY/WX    TMP DP  RH WIND       PRES   REMARKS
ALTON          CLOUDY    33  29  85 S9        29.99S WCI  26
BELLEVILLE     PTCLDY    30  24  78 S7        30.00S WCI  23
CAHOKIA*       CLOUDY    35  27  72 S6        29.99S WCI  30
SPARTA*        CLOUDY    33  26  76 S10       30.04S WCI  25
$$

ILZ064>066-069>071-074>076-080>082-084>086-088>090-092>094-201300-
SOUTH-CENTRAL ILLINOIS

CITY           SKY/WX    TMP DP  RH WIND       PRES   REMARKS
CARBONDALE     FAIR      34  25  69 S12       30.07S WCI  25
6HR MIN TEMP:  32; 6HR MAX TEMP:  36;

CAIRO*         FAIR      35  23  61 S3        30.13S
EFFINGHAM*     FAIR      34  27  76 S7        30.03S WCI  27
MARION         FAIR      31  23  70 S8        30.08F WCI  24
MT. VERNON     FAIR      30  25  81 S7        30.06R WCI  23
CENTRALIA*     CLOUDY    34  28  77 S12       30.03S WCI  25
SALEM*         FAIR      35  27  71 S12       30.03S WCI  27
METROPOLIS*    FAIR      36  20  53 CALM      30.14R
$$

ILZ067-068-072-073-078-083-087-091-201300-
SOUTHEAST ILLINOIS

CITY           SKY/WX    TMP DP  RH WIND       PRES   REMARKS
LAWRENCEVILLE  FAIR      29  21  72 S9        30.07R WCI  20
FLORA*         FAIR      33  27  77 S8        30.05S WCI  26
FAIRFIELD*     FAIR      32  24  73 S5        30.06S WCI  27
HARRISBURG*    FAIR      34  24  65 SW6       30.09S WCI  29
ROBINSON*      FAIR      33  24  71 SW10      30.06R WCI  24
CARMI*         FAIR      33  23  67 S8        30.08S WCI  25
$$

ABBREVIATIONS USED IN REMARKS
   TC - TEMPERATURE IN CELSIUS
  WCI - WIND CHILL INDEX
   HX - HEAT INDEX
  VSB - VISIBILITY
$$




USA.gov is the U.S. government's official web portal to all federal, state and local government web resources and services.